TimeEDT,TemperatureF,Dew PointF,Humidity,Sea Level PressureIn,VisibilityMPH,Wind Direction,Wind SpeedMPH,Gust SpeedMPH,PrecipitationIn,Events,Conditions,WindDirDegrees,DateUTC
12:52 AM,73.9,64.0,71,29.97,10.0,SSW,5.8,-,N/A,,Mostly Cloudy,200,2013-08-03 04:52:00
1:52 AM,75.0,64.0,69,29.95,10.0,Calm,Calm,-,N/A,,Overcast,0,2013-08-03 05:52:00
2:52 AM,73.9,64.9,73,29.94,10.0,SSW,4.6,-,N/A,,Mostly Cloudy,200,2013-08-03 06:52:00
3:52 AM,72.0,64.9,78,29.95,10.0,SSW,6.9,-,N/A,,Overcast,210,2013-08-03 07:52:00
4:52 AM,72.0,64.9,78,29.95,10.0,SW,6.9,-,N/A,,Overcast,230,2013-08-03 08:52:00
5:52 AM,72.0,64.9,78,29.96,10.0,Calm,Calm,-,N/A,,Overcast,0,2013-08-03 09:52:00
6:52 AM,72.0,64.9,78,29.97,10.0,SSW,6.9,-,N/A,,Overcast,200,2013-08-03 10:52:00
7:52 AM,73.0,64.9,76,29.98,10.0,Calm,Calm,-,N/A,,Overcast,0,2013-08-03 11:52:00
8:52 AM,73.9,66.0,76,29.99,8.0,South,3.5,-,0.01,,Overcast,190,2013-08-03 12:52:00
9:52 AM,77.0,64.9,66,29.98,10.0,Calm,Calm,-,0.00,,Overcast,0,2013-08-03 13:52:00
10:52 AM,78.1,64.9,64,29.98,10.0,North,6.9,-,N/A,,Overcast,360,2013-08-03 14:52:00
11:52 AM,80.1,62.1,54,29.98,10.0,NNW,11.5,-,N/A,,Overcast,340,2013-08-03 15:52:00
12:52 PM,80.1,63.0,56,29.96,10.0,NNE,4.6,-,N/A,,Overcast,20,2013-08-03 16:52:00
1:52 PM,81.0,63.0,54,29.96,10.0,North,6.9,-,N/A,,Overcast,350,2013-08-03 17:52:00
2:52 PM,81.0,64.0,56,29.95,10.0,North,5.8,-,N/A,,Mostly Cloudy,350,2013-08-03 18:52:00
3:52 PM,79.0,62.1,56,29.95,10.0,North,8.1,-,N/A,,Overcast,360,2013-08-03 19:52:00
4:52 PM,79.0,61.0,54,29.94,10.0,NNW,10.4,-,N/A,,Overcast,330,2013-08-03 20:52:00
5:52 PM,75.0,64.0,69,29.95,10.0,NNW,12.7,-,0.00,,Overcast,330,2013-08-03 21:52:00
6:52 PM,73.9,64.0,71,29.95,10.0,North,8.1,-,N/A,,Overcast,350,2013-08-03 22:52:00
7:52 PM,75.0,64.0,69,29.94,10.0,Calm,Calm,-,N/A,,Overcast,0,2013-08-03 23:52:00
8:52 PM,73.9,64.9,73,29.95,10.0,NNW,10.4,-,N/A,,Overcast,340,2013-08-04 00:52:00
9:22 PM,73.4,64.4,73,29.96,9.0,NNW,11.5,-,0.00,Rain,Light Rain,340,2013-08-04 01:22:00
9:52 PM,71.1,64.9,81,29.96,9.0,NNE,3.5,-,0.02,Rain,Light Rain,20,2013-08-04 01:52:00
10:52 PM,71.1,66.0,84,29.95,10.0,Variable,3.5,-,0.00,,Overcast,0,2013-08-04 02:52:00
11:52 PM,72.0,66.0,81,29.95,10.0,North,4.6,-,N/A,,Overcast,360,2013-08-04 03:52:00